Flag for Switzerland Weather past 2 weeks in Stäfa, Zurich, Switzerland

Now
60 °F

Cool.


Feels Like: 60 °F
Forecast: 56 / 72 °F
Wind: 1 mph from Southwest

Location: Zurich Town / Ville.

Current Time: Aug 29, 2014 at 3:49:11 AM

Latest Report: Aug 29, 2014 at 3:00 AM


Visibility: N/A

Pressure: 30.06 "Hg

Humidity: 91%

Dew point: 57 °F

Location of StäfaLocation

Historic Weather in Stäfa — Graph

°F

Stäfa temperature yesterday

Maximum temperature yesterday: 74 °F (at 5:00 PM)
Minimum temperature yesterday: 55 °F (at 3:00 AM)
Average temperature yesterday: 63 °F

Past Weeks' High & Low Weather Summary

 TemperatureHumidityPressure
High74 °F (Aug 28, 5:00 PM)98% (Aug 19, 8:00 AM)30.22 "Hg (Aug 19, 8:00 AM)
Low49 °F (Aug 17, 7:00 AM)42% (Aug 21, 4:00 PM)29.77 "Hg (Aug 26, 7:00 PM)
Average58 °F75%30.01 "Hg
* Reported Aug 14 2:00 AM — Aug 29 2:00 AM, Stäfa, Weather by CustomWeather, © 2014

Note: Actual official high and low records may vary slightly from our data, if they occured in-between our weather recording intervals... More about our weather records

Advertising

Stäfa weather history for previous 24 hours

 ConditionsComfort  
Time TempWeatherWind HumidityBarometerVisibility
2:00 AM
Aug 29
62 °FCool.1 mph85%30.06 "HgN/A
1:00 AM61 °FCool.No wind87%30.07 "HgN/A
12:00 AM63 °FMild.1 mph84%30.06 "HgN/A
11:00 PM
Aug 28
63 °FMild.No wind82%30.06 "HgN/A
10:00 PM64 °FMild.2 mph81%30.05 "HgN/A
9:00 PM65 °FMild.3 mph79%30.04 "HgN/A
8:00 PM68 °FPartly sunny.3 mph69%30.02 "HgN/A
7:00 PM72 °FMild.2 mph56%29.99 "HgN/A
6:00 PM73 °FMild.3 mph50%29.98 "HgN/A
5:00 PM74 °FMild.2 mph48%29.98 "HgN/A
4:00 PM73 °FMild.2 mph49%29.99 "HgN/A
3:00 PM70 °FMild.3 mph53%30.02 "HgN/A
2:00 PM70 °FScattered clouds.3 mph60%30.02 "HgN/A
1:00 PM68 °FMild.3 mph67%30.03 "HgN/A
12:00 PM65 °FMild.2 mph74%30.05 "HgN/A
11:00 AM64 °FMild.2 mph76%30.06 "HgN/A
10:00 AM61 °FCool.1 mph85%30.07 "HgN/A
9:00 AM59 °FCool.1 mph91%30.08 "HgN/A
8:00 AM58 °FPassing clouds.1 mph95%30.08 "HgN/A
7:00 AM57 °FCool.1 mph96%30.07 "HgN/A
6:00 AM57 °FCool.1 mph95%30.06 "HgN/A
5:00 AM57 °FCool.No wind94%30.06 "HgN/A
4:00 AM57 °FCool.No wind91%30.06 "HgN/A
3:00 AM55 °FCool.3 mph95%30.07 "HgN/A
Weather by CustomWeather, © 2014

See weather overviewHow to use our weather pages